Weather in Bjelovar

Croatia     45°54′00″N   16°50′20″E
temp.,
°C
wind,
m/s
gust,
m/s
humid.,
%
clouds,
%
prec.,
mm/h
press.,
hPa
HPBL,
m
9 may, sun
sun923:00+7sse226860 0.0 102231
02:00+5ssw12775 0.0 102218
05:00+4s11815 0.0 102214
08:00+10ssw25665 0.0 1022245
11:00+17s35455 0.0 1021744
14:00+21sse35395 0.0 10201132
17:00+21sse35494 0.0 1018953
20:00+14ese23770 0.0 101735
10 may, mon
mon1023:00+11sse12842 0.0 101812
02:00+9s23845 0.0 101740
05:00+9s36926 0.0 101795
08:00+15ssw496976 0.0 1017270
11:00+21ssw6104918 0.0 1016766
14:00+24ssw69474 0.0 10141454
17:00+24sw58510 0.0 1014781
20:00+17sw311671 0.0 1014200
11 may, tue
tue1123:00+13ssw36715 0.0 1015102
02:00+12ssw38775 0.0 1014122
05:00+11ssw35825 0.0 101368
08:00+15ssw35705 0.0 1013193
11:00+22ssw35505 0.0 1012625
14:00+25ssw344142 0.0 10101166
17:00+26sse23440 0.0 10071273
20:00+20ese397396 0.0 1006213
12 may, wed
wed1223:00+16ssw228133 0.0 100617
02:00+14n3488100 0.6 100580
05:00+14e258965 0.1 1003108
08:00+14ese2497100 11.3 1004314
11:00+15ssw2483100 3.5 1004463
14:00+15sw2487100 5.5 1005260
17:00+15w488489 1.2 1005843
20:00+12w249455 1.4 1006207
13 may, thu
thu1323:00+11wsw139698 0.3 1006168
02:00+11nw2598100 1.2 1006255
05:00+11wsw2498100 2.0 1005165
08:00+11sw2497100 3.4 1005195
11:00+11wsw3694100 1.3 1005318
14:00+12sw3693100 3.0 1006337
17:00+11sw3696100 1.3 1007253
20:00+11w2395100 2.0 100879